QPF
0.00 0.00 0.00 0.00 0.00 0.00 0.00 0.00 0.00 0.00 0.00 0.00 0.00 0.00 0.01 0.01 0.00 0.00 0.00 0.00 0.00 0.00 0.00 0.00 0.00 0.00 0.00 0.00 0.00 0.00 0.00 0.00 0.00 0.00 0.00 0.00 0.00 0.00 0.00 0.00 0.00 0.00 0.00 0.00
0.00 0.00 0.00 0.00 0.01 0.01 0.00 0.00 0.00 0.00 0.00 0.00 0.00 0.00 0.00 0.00 0.00 0.00 0.00 0.00 0.00 0.00 0.00 0.00 0.00 0.00 0.00 0.00 0.00 0.00 0.00 0.00 0.01 0.00 0.00 0.00 0.00 0.00 0.00 0.00 0.00 0.00 0.00 0.00
0.00 0.00 0.00 0.00 0.00 0.00 0.00 0.00 0.00 0.00 0.00 0.00 0.00 0.00 0.00 0.00 0.00 0.00 0.00 0.00 0.00 0.00 0.00 0.00 0.00 0.00 0.00 0.00 0.00 0.00 0.01 0.01 0.01 0.00 0.00 0.00 0.00 0.00 0.00 0.00 0.00 0.01 0.01 0.01
0.00 0.00 0.00 0.00 0.00 0.00 0.00 0.00 0.00 0.00 0.00 0.00 0.00 0.00 0.00 0.00 0.00 0.00 0.00 0.00 0.00 0.00 0.00 0.00 0.00 0.00 0.00 0.00 0.00 0.00 0.00 0.00 0.00 0.00 0.00 0.00 0.01 0.01 0.01 0.01 0.01 0.01 0.01 0.01
0.00 0.00 0.00 0.00 0.00 0.00 0.00 0.00 0.00 0.00 0.00 0.00 0.00 0.00 0.00 0.00 0.00 0.00 0.00 0.00 0.00 0.00 0.00 0.00 0.00 0.00 0.00 0.00 0.00 0.00 0.00 0.00 0.00 0.00 0.00 0.01 0.01 0.02 0.02 0.02 0.02 0.02 0.02 0.02
0.00 0.00 0.00 0.00 0.00 0.00 0.00 0.00 0.00 0.00 0.00 0.00 0.00 0.00 0.00 0.00 0.00 0.00 0.00 0.00 0.00 0.00 0.00 0.00 0.00 0.00 0.00 0.00 0.00 0.00 0.00 0.00 0.00 0.00 0.00 0.00 0.02 0.04 0.03 0.03 0.02 0.02 0.03 0.05
0.00 0.00 0.00 0.00 0.00 0.00 0.00 0.00 0.00 0.00 0.00 0.00 0.00 0.00 0.00 0.00 0.00 0.00 0.00 0.00 0.00 0.00 0.00 0.00 0.00 0.00 0.00 0.00 0.00 0.00 0.00 0.00 0.00 0.00 0.00 0.01 0.02 0.04 0.04 0.05 0.02 0.03 0.05 0.08
0.00 0.00 0.00 0.00 0.00 0.00 0.00 0.00 0.00 0.00 0.00 0.00 0.00 0.00 0.00 0.00 0.00 0.00 0.00 0.00 0.00 0.00 0.00 0.00 0.00 0.00 0.00 0.00 0.00 0.00 0.00 0.00 0.00 0.00 0.01 0.01 0.01 0.02 0.03 0.06 0.05 0.04 0.05 0.08
0.00 0.00 0.00 0.00 0.00 0.00 0.00 0.00 0.00 0.00 0.00 0.00 0.00 0.00 0.00 0.00 0.00 0.00 0.00 0.00 0.00 0.00 0.00 0.00 0.00 0.00 0.00 0.00 0.00 0.00 0.00 0.00 0.00 0.00 0.00 0.01 0.01 0.01 0.01 0.02 0.05 0.04 0.04 0.07
0.00 0.00 0.00 0.00 0.00 0.00 0.00 0.00 0.00 0.00 0.00 0.00 0.00 0.00 0.00 0.00 0.00 0.00 0.00 0.00 0.00 0.00 0.00 0.00 0.00 0.00 0.00 0.00 0.00 0.00 0.00 0.00 0.00 0.00 0.00 0.01 0.01 0.01 0.01 0.01 0.02 0.02 0.03 0.06
0.00 0.00 0.00 0.00 0.00 0.00 0.00 0.00 0.00 0.00 0.00 0.00 0.00 0.00 0.00 0.00 0.00 0.00 0.00 0.00 0.00 0.00 0.00 0.00 0.00 0.00 0.00 0.00 0.00 0.00 0.00 0.00 0.00 0.00 0.00 0.01 0.01 0.01 0.01 0.01 0.02 0.02 0.03 0.05
0.00 0.00 0.00 0.00 0.00 0.00 0.00 0.00 0.00 0.00 0.00 0.00 0.00 0.00 0.00 0.00 0.00 0.00 0.00 0.00 0.00 0.00 0.00 0.00 0.00 0.00 0.00 0.00 0.00 0.00 0.00 0.00 0.00 0.00 0.00 0.00 0.01 0.01 0.01 0.01 0.02 0.03 0.03 0.03
0.00 0.00 0.00 0.00 0.00 0.00 0.00 0.00 0.00 0.00 0.00 0.00 0.00 0.00 0.00 0.00 0.00 0.00 0.00 0.00 0.00 0.00 0.00 0.00 0.00 0.00 0.00 0.00 0.00 0.00 0.00 0.00 0.00 0.00 0.00 0.00 0.00 0.01 0.01 0.01 0.02 0.03 0.04 0.03
0.00 0.00 0.00 0.00 0.00 0.00 0.00 0.00 0.00 0.00 0.00 0.00 0.00 0.00 0.00 0.00 0.00 0.00 0.00 0.00 0.00 0.00 0.00 0.00 0.00 0.00 0.00 0.00 0.00 0.00 0.00 0.00 0.00 0.00 0.00 0.00 0.00 0.01 0.01 0.01 0.01 0.03 0.05 0.03
0.00 0.00 0.00 0.00 0.00 0.00 0.00 0.00 0.00 0.00 0.00 0.00 0.00 0.00 0.00 0.00 0.00 0.00 0.00 0.00 0.00 0.00 0.00 0.00 0.00 0.00 0.00 0.00 0.00 0.00 0.00 0.00 0.00 0.00 0.00 0.00 0.01 0.01 0.01 0.02 0.01 0.02 0.04 0.04
0.00 0.00 0.00 0.00 0.00 0.00 0.00 0.00 0.00 0.00 0.00 0.00 0.00 0.00 0.00 0.00 0.00 0.00 0.00 0.00 0.00 0.00 0.00 0.00 0.00 0.00 0.00 0.00 0.00 0.00 0.00 0.00 0.00 0.00 0.00 0.00 0.01 0.01 0.00 0.01 0.01 0.02 0.03 0.03
0.00 0.00 0.00 0.00 0.00 0.00 0.00 0.00 0.00 0.00 0.00 0.00 0.00 0.00 0.00 0.00 0.00 0.00 0.00 0.00 0.00 0.00 0.00 0.00 0.00 0.00 0.00 0.00 0.00 0.00 0.00 0.00 0.00 0.00 0.00 0.00 0.00 0.00 0.00 0.00 0.01 0.03 0.04 0.03
0.00 0.00 0.00 0.00 0.00 0.00 0.00 0.00 0.00 0.00 0.00 0.00 0.00 0.00 0.00 0.00 0.00 0.00 0.00 0.00 0.00 0.00 0.00 0.00 0.00 0.00 0.00 0.00 0.00 0.00 0.00 0.00 0.00 0.00 0.00 0.00 0.00 0.00 0.00 0.00 0.01 0.02 0.02 0.02
0.00 0.00 0.00 0.00 0.00 0.00 0.00 0.00 0.00 0.00 0.00 0.00 0.00 0.00 0.00 0.00 0.00 0.00 0.00 0.00 0.00 0.00 0.00 0.00 0.00 0.00 0.00 0.00 0.00 0.00 0.00 0.00 0.00 0.00 0.00 0.00 0.00 0.00 0.00 0.00 0.00 0.00 0.01 0.02
0.00 0.00 0.00 0.00 0.00 0.00 0.00 0.00 0.00 0.00 0.00 0.00 0.00 0.00 0.00 0.00 0.00 0.00 0.00 0.00 0.00 0.00 0.00 0.00 0.00 0.00 0.00 0.00 0.00 0.00 0.00 0.00 0.00 0.00 0.00 0.00 0.00 0.00 0.00 0.00 0.00 0.00 0.00 0.01
0.00 0.00 0.00 0.00 0.00 0.00 0.00 0.00 0.00 0.00 0.00 0.00 0.00 0.00 0.00 0.00 0.00 0.00 0.00 0.00 0.00 0.00 0.00 0.00 0.00 0.00 0.00 0.00 0.00 0.00 0.00 0.00 0.00 0.00 0.00 0.00 0.00 0.00 0.00 0.00 0.00 0.00 0.00 0.00
0.00 0.00 0.00 0.00 0.00 0.00 0.00 0.00 0.00 0.00 0.00 0.00 0.00 0.00 0.00 0.00 0.00 0.00 0.00 0.00 0.00 0.00 0.00 0.00 0.00 0.00 0.00 0.00 0.00 0.00 0.00 0.00 0.00 0.00 0.00 0.00 0.00 0.00 0.00 0.00 0.00 0.00 0.00 0.00
0.00 0.00 0.00 0.00 0.00 0.00 0.00 0.00 0.00 0.00 0.00 0.00 0.00 0.00 0.00 0.00 0.00 0.00 0.00 0.00 0.00 0.00 0.00 0.00 0.00 0.00 0.00 0.00 0.00 0.00 0.00 0.00 0.00 0.00 0.00 0.00 0.00 0.00 0.00 0.00 0.00 0.00 0.00 0.00
0.00 0.00 0.00 0.00 0.00 0.00 0.00 0.00 0.00 0.00 0.00 0.00 0.00 0.00 0.00 0.00 0.00 0.00 0.00 0.00 0.00 0.00 0.00 0.00 0.00 0.00 0.00 0.00 0.00 0.00 0.00 0.00 0.00 0.00 0.00 0.00 0.00 0.00 0.00 0.00 0.00 0.00 0.00 0.00
0.00 0.00 0.00 0.00 0.00 0.00 0.00 0.00 0.00 0.00 0.00 0.00 0.00 0.00 0.00 0.00 0.00 0.00 0.00 0.00 0.00 0.00 0.00 0.00 0.00 0.00 0.00 0.00 0.00 0.00 0.00 0.00 0.00 0.00 0.00 0.00 0.00 0.00 0.00 0.00 0.00 0.00 0.00 0.00
0.00 0.00 0.00 0.00 0.00 0.00 0.00 0.00 0.00 0.00 0.00 0.00 0.00 0.00 0.00 0.00 0.00 0.00 0.00 0.00 0.00 0.00 0.00 0.00 0.00 0.00 0.00 0.00 0.00 0.00 0.00 0.00 0.00 0.00 0.00 0.00 0.00 0.00 0.00 0.00 0.00 0.00 0.00 0.00
MSLP
1015.47 1016.55 1017.54 1018.41 1019.16 1019.82 1020.40 1020.95 1021.45 1021.91 1022.29 1022.58 1022.74 1022.77 1022.68 1022.48 1022.21 1021.92 1021.62 1021.34 1021.08 1020.84 1020.59 1020.32 1020.01 1019.66 1019.27 1018.87 1018.49 1018.13 1017.82 1017.54 1017.30 1017.07 1016.84 1016.57 1016.26 1015.91 1015.52 1015.13 1014.74 1014.39 1014.09 1013.85
1016.34 1017.27 1018.08 1018.77 1019.36 1019.91 1020.45 1021.01 1021.57 1022.10 1022.57 1022.91 1023.09 1023.10 1022.94 1022.66 1022.30 1021.92 1021.56 1021.26 1021.00 1020.78 1020.56 1020.31 1020.01 1019.66 1019.26 1018.83 1018.42 1018.04 1017.73 1017.48 1017.28 1017.11 1016.92 1016.69 1016.40 1016.04 1015.63 1015.20 1014.78 1014.40 1014.08 1013.84
1017.05 1017.83 1018.47 1019.00 1019.48 1019.96 1020.50 1021.10 1021.73 1022.35 1022.87 1023.24 1023.41 1023.35 1023.10 1022.70 1022.22 1021.75 1021.33 1020.99 1020.74 1020.55 1020.38 1020.17 1019.91 1019.57 1019.16 1018.73 1018.30 1017.92 1017.62 1017.40 1017.25 1017.13 1017.00 1016.81 1016.55 1016.19 1015.76 1015.30 1014.83 1014.41 1014.06 1013.79
1017.58 1018.21 1018.71 1019.12 1019.54 1020.02 1020.60 1021.28 1022.01 1022.70 1023.27 1023.64 1023.75 1023.59 1023.20 1022.65 1022.03 1021.44 1020.94 1020.57 1020.33 1020.18 1020.07 1019.92 1019.71 1019.40 1019.01 1018.58 1018.15 1017.77 1017.49 1017.30 1017.20 1017.13 1017.05 1016.91 1016.68 1016.33 1015.88 1015.38 1014.87 1014.39 1013.99 1013.68
1017.95 1018.45 1018.84 1019.19 1019.60 1020.13 1020.80 1021.59 1022.42 1023.19 1023.79 1024.13 1024.15 1023.86 1023.30 1022.56 1021.78 1021.06 1020.47 1020.07 1019.84 1019.73 1019.68 1019.61 1019.46 1019.19 1018.83 1018.41 1017.99 1017.62 1017.34 1017.18 1017.11 1017.09 1017.06 1016.96 1016.75 1016.41 1015.95 1015.42 1014.86 1014.33 1013.87 1013.50
1018.24 1018.61 1018.93 1019.26 1019.71 1020.32 1021.11 1022.03 1022.97 1023.81 1024.42 1024.70 1024.61 1024.16 1023.41 1022.49 1021.54 1020.67 1020.00 1019.56 1019.34 1019.28 1019.30 1019.30 1019.21 1019.00 1018.67 1018.27 1017.85 1017.48 1017.21 1017.05 1017.00 1017.00 1017.00 1016.93 1016.74 1016.41 1015.95 1015.40 1014.81 1014.23 1013.71 1013.27
1018.48 1018.76 1019.02 1019.37 1019.88 1020.60 1021.51 1022.55 1023.59 1024.48 1025.09 1025.31 1025.09 1024.48 1023.55 1022.45 1021.33 1020.35 1019.60 1019.13 1018.91 1018.89 1018.97 1019.03 1019.01 1018.85 1018.56 1018.17 1017.75 1017.37 1017.08 1016.92 1016.86 1016.87 1016.88 1016.83 1016.66 1016.35 1015.89 1015.33 1014.72 1014.10 1013.54 1013.05
1018.72 1018.92 1019.15 1019.53 1020.11 1020.93 1021.96 1023.10 1024.20 1025.12 1025.70 1025.84 1025.51 1024.75 1023.67 1022.42 1021.18 1020.10 1019.29 1018.80 1018.59 1018.60 1018.73 1018.85 1018.87 1018.76 1018.49 1018.11 1017.69 1017.29 1016.99 1016.80 1016.72 1016.72 1016.73 1016.68 1016.53 1016.23 1015.79 1015.24 1014.62 1013.99 1013.40 1012.86
1018.94 1019.09 1019.31 1019.71 1020.35 1021.25 1022.35 1023.55 1024.69 1025.59 1026.13 1026.19 1025.76 1024.90 1023.71 1022.36 1021.05 1019.92 1019.08 1018.57 1018.38 1018.42 1018.57 1018.73 1018.79 1018.70 1018.46 1018.09 1017.66 1017.25 1016.92 1016.70 1016.60 1016.57 1016.56 1016.51 1016.37 1016.09 1015.67 1015.14 1014.53 1013.91 1013.30 1012.74
1019.12 1019.23 1019.45 1019.87 1020.55 1021.49 1022.62 1023.82 1024.94 1025.80 1026.27 1026.26 1025.76 1024.83 1023.59 1022.21 1020.88 1019.75 1018.92 1018.42 1018.24 1018.29 1018.47 1018.64 1018.72 1018.65 1018.42 1018.07 1017.65 1017.23 1016.89 1016.65 1016.51 1016.46 1016.43 1016.37 1016.22 1015.95 1015.56 1015.05 1014.47 1013.85 1013.25 1012.67
1019.20 1019.31 1019.54 1019.98 1020.67 1021.60 1022.70 1023.84 1024.88 1025.66 1026.04 1025.97 1025.43 1024.48 1023.26 1021.92 1020.63 1019.55 1018.76 1018.30 1018.13 1018.19 1018.36 1018.54 1018.62 1018.56 1018.35 1018.01 1017.62 1017.22 1016.88 1016.63 1016.48 1016.41 1016.36 1016.28 1016.13 1015.86 1015.48 1015.00 1014.43 1013.84 1013.23 1012.65
1019.18 1019.32 1019.58 1020.03 1020.69 1021.57 1022.57 1023.61 1024.52 1025.17 1025.46 1025.33 1024.77 1023.85 1022.70 1021.45 1020.27 1019.28 1018.57 1018.15 1018.00 1018.06 1018.22 1018.37 1018.45 1018.39 1018.20 1017.91 1017.55 1017.19 1016.88 1016.66 1016.51 1016.42 1016.36 1016.26 1016.09 1015.82 1015.45 1014.97 1014.42 1013.83 1013.23 1012.64
1019.10 1019.29 1019.58 1020.03 1020.65 1021.42 1022.29 1023.16 1023.90 1024.41 1024.58 1024.39 1023.83 1022.98 1021.94 1020.83 1019.79 1018.93 1018.31 1017.95 1017.83 1017.87 1018.00 1018.13 1018.19 1018.14 1017.98 1017.74 1017.44 1017.15 1016.90 1016.72 1016.59 1016.51 1016.43 1016.31 1016.12 1015.84 1015.45 1014.97 1014.42 1013.84 1013.23 1012.63
1019.03 1019.29 1019.61 1020.04 1020.58 1021.23 1021.92 1022.59 1023.12 1023.45 1023.50 1023.25 1022.71 1021.94 1021.03 1020.09 1019.22 1018.51 1018.00 1017.71 1017.60 1017.63 1017.73 1017.82 1017.86 1017.82 1017.70 1017.51 1017.30 1017.09 1016.92 1016.80 1016.72 1016.65 1016.56 1016.43 1016.21 1015.90 1015.48 1014.99 1014.43 1013.84 1013.23 1012.62
1019.07 1019.39 1019.74 1020.12 1020.57 1021.05 1021.53 1021.96 1022.27 1022.40 1022.32 1022.00 1021.49 1020.81 1020.05 1019.28 1018.60 1018.04 1017.65 1017.42 1017.34 1017.35 1017.42 1017.48 1017.50 1017.47 1017.38 1017.27 1017.14 1017.03 1016.95 1016.90 1016.86 1016.81 1016.73 1016.57 1016.33 1015.98 1015.54 1015.03 1014.45 1013.85 1013.23 1012.61
1019.31 1019.67 1020.00 1020.32 1020.63 1020.92 1021.18 1021.35 1021.42 1021.35 1021.12 1020.75 1020.25 1019.66 1019.05 1018.46 1017.95 1017.55 1017.28 1017.13 1017.07 1017.07 1017.11 1017.14 1017.14 1017.12 1017.08 1017.03 1016.99 1016.97 1016.97 1016.99 1017.00 1016.98 1016.89 1016.72 1016.45 1016.08 1015.62 1015.09 1014.51 1013.90 1013.28 1012.66
1019.78 1020.13 1020.41 1020.62 1020.77 1020.85 1020.86 1020.78 1020.61 1020.34 1019.97 1019.54 1019.05 1018.55 1018.07 1017.65 1017.31 1017.07 1016.91 1016.83 1016.81 1016.81 1016.83 1016.84 1016.83 1016.83 1016.82 1016.82 1016.86 1016.91 1016.99 1017.06 1017.11 1017.10 1017.02 1016.84 1016.56 1016.18 1015.71 1015.18 1014.60 1014.01 1013.40 1012.79
1020.39 1020.69 1020.87 1020.94 1020.91 1020.77 1020.53 1020.21 1019.82 1019.36 1018.88 1018.39 1017.92 1017.50 1017.14 1016.87 1016.69 1016.58 1016.53 1016.53 1016.55 1016.58 1016.59 1016.59 1016.59 1016.59 1016.61 1016.66 1016.74 1016.85 1016.97 1017.08 1017.16 1017.17 1017.09 1016.91 1016.63 1016.26 1015.81 1015.31 1014.76 1014.20 1013.63 1013.05
1021.03 1021.22 1021.27 1021.18 1020.95 1020.59 1020.14 1019.60 1019.01 1018.41 1017.83 1017.30 1016.85 1016.50 1016.25 1016.11 1016.07 1016.09 1016.15 1016.23 1016.30 1016.35 1016.39 1016.40 1016.40 1016.42 1016.46 1016.53 1016.64 1016.78 1016.93 1017.05 1017.13 1017.15 1017.08 1016.92 1016.66 1016.32 1015.92 1015.47 1014.99 1014.49 1013.98 1013.45
1021.51 1021.56 1021.45 1021.19 1020.78 1020.24 1019.60 1018.90 1018.17 1017.46 1016.82 1016.28 1015.85 1015.57 1015.42 1015.39 1015.45 1015.58 1015.73 1015.89 1016.02 1016.12 1016.18 1016.21 1016.24 1016.27 1016.33 1016.42 1016.54 1016.68 1016.83 1016.95 1017.03 1017.05 1016.99 1016.85 1016.64 1016.36 1016.03 1015.66 1015.26 1014.84 1014.41 1013.95
1021.66 1021.57 1021.32 1020.91 1020.35 1019.67 1018.91 1018.10 1017.29 1016.53 1015.87 1015.33 1014.95 1014.72 1014.64 1014.70 1014.85 1015.06 1015.29 1015.51 1015.69 1015.84 1015.94 1016.01 1016.06 1016.12 1016.19 1016.28 1016.40 1016.53 1016.67 1016.78 1016.85 1016.87 1016.83 1016.73 1016.57 1016.36 1016.12 1015.85 1015.55 1015.23 1014.88 1014.49
1021.42 1021.20 1020.83 1020.31 1019.66 1018.91 1018.09 1017.24 1016.42 1015.66 1015.02 1014.52 1014.17 1013.99 1013.97 1014.08 1014.28 1014.54 1014.81 1015.08 1015.31 1015.50 1015.64 1015.74 1015.83 1015.91 1015.99 1016.09 1016.20 1016.33 1016.44 1016.54 1016.60 1016.63 1016.61 1016.55 1016.46 1016.33 1016.18 1016.01 1015.82 1015.59 1015.33 1015.01
1020.79 1020.49 1020.04 1019.47 1018.80 1018.04 1017.23 1016.42 1015.65 1014.95 1014.35 1013.90 1013.60 1013.45 1013.45 1013.57 1013.79 1014.05 1014.34 1014.62 1014.87 1015.08 1015.26 1015.39 1015.51 1015.61 1015.71 1015.82 1015.93 1016.04 1016.15 1016.23 1016.30 1016.34 1016.35 1016.34 1016.31 1016.26 1016.20 1016.12 1016.02 1015.87 1015.69 1015.44
1019.89 1019.55 1019.10 1018.54 1017.90 1017.21 1016.48 1015.76 1015.08 1014.46 1013.95 1013.55 1013.28 1013.14 1013.13 1013.23 1013.41 1013.65 1013.90 1014.16 1014.40 1014.62 1014.80 1014.96 1015.09 1015.22 1015.34 1015.45 1015.56 1015.67 1015.77 1015.86 1015.93 1015.99 1016.04 1016.08 1016.11 1016.14 1016.15 1016.15 1016.12 1016.04 1015.91 1015.71
1018.90 1018.58 1018.17 1017.68 1017.14 1016.56 1015.96 1015.37 1014.81 1014.30 1013.86 1013.51 1013.26 1013.11 1013.06 1013.10 1013.20 1013.36 1013.54 1013.74 1013.93 1014.12 1014.29 1014.44 1014.59 1014.72 1014.85 1014.98 1015.09 1015.21 1015.31 1015.41 1015.50 1015.59 1015.68 1015.77 1015.86 1015.94 1016.02 1016.07 1016.09 1016.06 1015.97 1015.80
1018.03 1017.77 1017.44 1017.06 1016.64 1016.21 1015.76 1015.31 1014.87 1014.47 1014.10 1013.78 1013.53 1013.35 1013.23 1013.17 1013.17 1013.22 1013.30 1013.40 1013.51 1013.64 1013.77 1013.89 1014.02 1014.15 1014.27 1014.39 1014.52 1014.64 1014.75 1014.87 1014.99 1015.11 1015.24 1015.38 1015.52 1015.66 1015.78 1015.88 1015.93 1015.93 1015.86 1015.72
Thickness
5772 5757 5745 5749 5751 5750 5743 5732 5726 5728 5734 5724 5714 5711 5711 5711 5705 5699 5693 5689 5685 5683 5683 5681 5678 5674 5670 5667 5663 5660 5657 5656 5655 5653 5653 5653 5655 5658 5662 5665 5669 5672 5676 5681
5752 5747 5758 5761 5756 5749 5740 5729 5724 5726 5730 5720 5710 5707 5709 5708 5704 5699 5693 5688 5685 5682 5680 5677 5674 5670 5666 5663 5659 5657 5654 5652 5650 5648 5648 5648 5649 5652 5655 5657 5661 5665 5668 5673
5746 5752 5763 5756 5747 5740 5734 5727 5724 5720 5719 5714 5707 5700 5703 5706 5705 5702 5696 5691 5687 5682 5677 5674 5671 5667 5664 5661 5657 5655 5651 5649 5647 5646 5645 5645 5646 5647 5648 5651 5654 5658 5661 5665
5746 5755 5756 5748 5742 5739 5727 5737 5731 5721 5706 5695 5700 5679 5695 5699 5698 5697 5694 5689 5685 5682 5678 5673 5669 5666 5662 5660 5657 5653 5650 5647 5645 5643 5640 5639 5638 5638 5641 5643 5647 5651 5654 5658
5740 5749 5748 5742 5742 5742 5733 5733 5726 5718 5705 5691 5691 5679 5687 5696 5692 5693 5693 5690 5687 5682 5678 5673 5669 5665 5662 5659 5655 5652 5648 5645 5643 5640 5637 5635 5634 5634 5636 5639 5641 5644 5648 5652
5742 5751 5750 5745 5743 5742 5733 5721 5711 5698 5690 5679 5688 5677 5681 5687 5694 5697 5696 5693 5688 5684 5679 5674 5671 5666 5662 5659 5655 5651 5647 5644 5641 5638 5636 5633 5631 5631 5632 5634 5636 5639 5642 5646
5729 5738 5746 5748 5736 5733 5724 5704 5683 5682 5670 5673 5688 5680 5685 5702 5703 5701 5698 5694 5690 5685 5679 5673 5669 5665 5661 5658 5654 5650 5646 5643 5640 5637 5634 5632 5630 5629 5629 5630 5631 5634 5637 5640
5714 5713 5734 5741 5736 5724 5717 5705 5682 5674 5665 5670 5684 5680 5696 5711 5711 5708 5703 5698 5692 5686 5680 5675 5671 5666 5662 5658 5654 5650 5646 5643 5640 5637 5634 5632 5630 5628 5627 5627 5628 5630 5632 5635
5712 5713 5734 5740 5741 5730 5713 5702 5699 5679 5677 5669 5675 5688 5703 5713 5711 5707 5703 5698 5692 5688 5683 5678 5674 5669 5664 5660 5655 5651 5647 5643 5640 5637 5634 5632 5630 5628 5626 5626 5626 5627 5629 5633
5725 5714 5725 5735 5736 5729 5723 5702 5687 5679 5672 5664 5672 5681 5689 5705 5704 5704 5701 5697 5694 5690 5686 5681 5676 5672 5667 5662 5658 5654 5649 5645 5641 5638 5634 5632 5630 5628 5626 5625 5625 5626 5627 5630
5730 5713 5714 5723 5721 5717 5711 5702 5687 5674 5673 5663 5661 5679 5708 5711 5711 5707 5704 5701 5696 5692 5688 5683 5678 5674 5669 5665 5660 5655 5651 5647 5643 5639 5636 5633 5630 5628 5626 5625 5624 5625 5626 5628
5722 5707 5700 5713 5725 5728 5723 5711 5693 5685 5679 5667 5661 5681 5720 5717 5715 5711 5708 5705 5701 5697 5692 5686 5681 5676 5671 5666 5662 5657 5653 5649 5645 5641 5637 5634 5632 5629 5627 5625 5625 5625 5626 5627
5721 5706 5693 5698 5705 5720 5719 5711 5702 5688 5675 5663 5664 5687 5720 5719 5717 5714 5711 5707 5703 5699 5695 5688 5683 5677 5673 5668 5664 5660 5655 5651 5647 5643 5639 5636 5633 5630 5628 5626 5625 5625 5626 5627
5726 5708 5701 5697 5702 5711 5715 5712 5702 5694 5680 5673 5679 5694 5714 5718 5717 5716 5713 5710 5705 5701 5696 5691 5685 5680 5676 5671 5666 5662 5658 5653 5649 5645 5641 5637 5634 5631 5629 5628 5627 5626 5626 5626
5724 5711 5713 5714 5720 5718 5718 5717 5707 5702 5699 5691 5700 5702 5716 5722 5722 5721 5719 5714 5708 5704 5700 5695 5689 5684 5679 5674 5669 5665 5660 5656 5652 5647 5643 5639 5635 5633 5631 5629 5627 5626 5626 5626
5716 5713 5715 5715 5720 5720 5718 5720 5715 5710 5710 5706 5706 5710 5729 5730 5727 5724 5721 5716 5711 5707 5704 5699 5694 5688 5683 5678 5672 5668 5663 5659 5654 5650 5645 5641 5638 5635 5632 5629 5627 5626 5625 5624
5708 5709 5703 5700 5709 5717 5711 5723 5720 5719 5720 5717 5712 5722 5733 5732 5729 5727 5725 5720 5716 5712 5708 5703 5698 5692 5687 5681 5676 5670 5666 5662 5657 5652 5648 5644 5640 5636 5633 5630 5628 5626 5624 5623
5708 5699 5689 5691 5705 5700 5717 5738 5734 5728 5730 5727 5729 5733 5735 5734 5735 5734 5731 5725 5720 5717 5713 5708 5702 5696 5691 5686 5680 5674 5669 5664 5660 5655 5651 5647 5642 5638 5634 5631 5628 5625 5623 5622
5711 5702 5688 5683 5690 5697 5722 5737 5735 5730 5732 5740 5734 5737 5738 5737 5734 5733 5737 5732 5728 5723 5718 5713 5707 5701 5695 5689 5683 5677 5672 5667 5662 5658 5653 5649 5645 5641 5636 5632 5628 5626 5623 5621
5705 5702 5689 5683 5694 5694 5720 5741 5745 5737 5728 5745 5742 5740 5736 5731 5719 5727 5740 5736 5731 5727 5721 5716 5710 5703 5697 5692 5686 5679 5674 5669 5665 5661 5656 5652 5648 5644 5639 5634 5630 5627 5624 5622
5700 5692 5686 5683 5688 5697 5726 5739 5741 5719 5723 5748 5747 5743 5735 5730 5733 5739 5741 5738 5734 5729 5724 5718 5711 5705 5700 5695 5688 5681 5676 5672 5669 5664 5660 5656 5651 5647 5642 5638 5633 5630 5627 5625
5695 5687 5683 5679 5685 5699 5735 5735 5728 5730 5744 5747 5747 5746 5739 5738 5740 5740 5739 5736 5733 5728 5724 5718 5712 5707 5702 5696 5690 5684 5679 5677 5672 5667 5663 5658 5654 5650 5646 5641 5637 5633 5629 5626
5698 5701 5696 5698 5707 5725 5731 5732 5738 5739 5740 5745 5745 5746 5743 5739 5738 5738 5736 5734 5731 5727 5723 5718 5713 5708 5703 5698 5693 5687 5685 5680 5675 5669 5665 5661 5657 5652 5648 5643 5639 5635 5632 5628
5703 5704 5702 5703 5717 5725 5727 5729 5733 5737 5739 5744 5745 5745 5743 5739 5738 5735 5733 5730 5728 5725 5721 5717 5712 5707 5704 5700 5695 5692 5688 5683 5677 5672 5667 5663 5658 5654 5650 5646 5642 5638 5634 5630
5703 5699 5702 5706 5714 5720 5729 5727 5729 5734 5738 5740 5741 5741 5740 5737 5734 5732 5730 5728 5726 5723 5720 5716 5711 5708 5706 5702 5698 5695 5690 5684 5679 5674 5669 5665 5661 5656 5652 5648 5644 5641 5637 5634
5693 5695 5699 5703 5707 5705 5712 5719 5723 5726 5729 5732 5733 5734 5734 5732 5730 5729 5726 5725 5723 5720 5717 5713 5710 5708 5706 5703 5699 5697 5692 5686 5681 5675 5671 5667 5663 5658 5654 5650 5647 5645 5642 5640